Location: Newark
(48.6461°N, 4.3644°W)
Time: 20:25:48
(UTC+00:00)

deb Explorer IX - Pass Details

Date: 02 February 2020
Orbit: 549 x 1099 km, 38.8° (Epoch: 18 February)

Event Time Altitude Azimuth Distance (km) Brightness Sun altitude
Rises 19:54:35 0° 239° (WSW) 3,394 ? -26.2°
Reaches altitude 10° 19:57:12 10° 230° (SW) 2,547 ? -26.7°
Enters shadow 20:02:30 33° 171° (S) 1,579 ? -27.5°
